Regional Weather Roundup
Issued by NWS

Home | Current Version | Previous Version | Graphics & Text | Print | Product List | Glossary On
Versions: 1 2 3 4 5 6 7 8 9 10 11 12 13 14 15 16 17 18 19 20 21 22 23 24 25 26 27 28 29 30 31 32 33 34 35 36 37 38 39 40 41 42 43 44 45 46 47 48 49 50
000
ASUS43 KLOT 211510
RWRIL

ILLINOIS REGIONAL WEATHER ROUNDUP
NATIONAL WEATHER SERVICE CHICAGO/ROMEOVILLE IL
900 AM CST SUN DEC 21 2014

NOTE: "FAIR" INDICATES FEW OR NO CLOUDS BELOW 12,000 FEET WITH NO
SIGNIFICANT WEATHER AND/OR OBSTRUCTIONS TO VISIBILITY.

* THESE STATIONS ARE NOT UNDER NWS QUALITY CONTROL. THEY ALSO MAY NOT
  REPORT WEATHER SUCH AS PRECIPITATION OR FOG.

ILZ001-002-007-009-015-016-024-211600-
NORTHWEST ILLINOIS

CITY           SKY/WX    TMP DP  RH WIND       PRES   REMARKS
MOLINE         CLOUDY    37  33  85 S9        30.11F WCI  30
STERLING*      CLOUDY    34  30  86 S5        30.14S WCI  30
SAVANNA*       CLOUDY    35  32  90 S6        30.12S FOG     WCI  30
$$

ILZ003-004-008-010-011-017-018-211600-
NORTH CENTRAL ILLINOIS

CITY           SKY/WX    TMP DP  RH WIND       PRES   REMARKS
ROCKFORD       CLOUDY    33  29  85 S10       30.17S FOG     WCI  25
FREEPORT*      CLOUDY    33  31  94 S13       30.13F FOG     WCI  23
ROCHELLE*      CLOUDY    32  30  93 S15       30.16S FOG     WCI  22
DE KALB*       CLOUDY    31  28  92 SE12      30.17S FOG     WCI  21
PERU*          CLOUDY    35  31  88 S9        30.17F FOG     WCI  27
$$

ILZ005-006-012>014-019>023-211600-
NORTHEAST ILLINOIS

CITY           SKY/WX    TMP DP  RH WIND       PRES   REMARKS
CHICAGO-OHARE  CLOUDY    33  27  78 S12       30.19F WCI  24
CHICAGO-MIDWAY CLOUDY    34  27  75 S8G17     30.21F WCI  27
AURORA         CLOUDY    34  28  79 SE9       30.19S HAZE    WCI  27
LANSING*       CLOUDY    32  27  83 S9        30.24S WCI  24
JOLIET*        CLOUDY    32  28  86 SE8       30.21S FOG     WCI  25
WAUKEGAN       CLOUDY    33  27  78 S8        30.18S WCI  26
DUPAGE AIRPORT CLOUDY    32  28  85 S12       30.18S FOG     WCI  23
KANKAKEE*      CLOUDY    32  28  86 SE8       30.24S WCI  25
WHEELING       CLOUDY    33  27  78 S9        30.21S WCI  25
MORRIS*        CLOUDY    33  31  92 S10       30.19F FOG     WCI  24
ROMEOVILLE*    CLOUDY    32  29  88 S12       30.20F FOG     WCI  23
NORTHERLY ISL    N/A     33  26  76 S8          N/A  WCI  26
$$

LMZ740>746-211600-
SOUTHERN LAKE MICHIGAN

STATION/POSITION SKY/WX   TEMP    WIND        PRES    VSBY  WAVE
                          AIR SEA DIR/SP/G                  HT/PER
                          (F)     (DEG/KT/KT) (MB)    (MI)  (FT/S)
WAUKEGAN HARBOR            34     180/ 12/ 15   N/A
HARRISON CRIB              33     170/ 20/ 22   N/A
BURNHAM HARBOR             33     180/  9/ 12   N/A
CALUMET HARBOR             32     160/ 12/ 17 1022.1S
$$

ILZ025>027-034>036-040-047-049-050-058-095>099-211600-
WEST-CENTRAL ILLINOIS

CITY           SKY/WX    TMP DP  RH WIND       PRES   REMARKS
QUINCY         CLOUDY    39  34  82 SE8       30.12F WCI  33
GALESBURG*     CLOUDY    36  34  93 S8        30.13F FOG     WCI  29
MACOMB*        CLOUDY    37  35  93 SE10      30.16F FOG     WCI  29
JACKSONVILLE*  CLOUDY    40  34  80 S10       30.18S
PITTSFIELD*    CLOUDY    39  35  85 SE10      30.16S WCI  32
$$

ILZ028>032-037-038-041>044-048-051>054-059>061-211600-
CENTRAL ILLINOIS

CITY           SKY/WX    TMP DP  RH WIND       PRES   REMARKS
PONTIAC        CLOUDY    34  31  89 S14G20    30.20F FOG     WCI  24
BLOOMINGTON    PTSUNNY   33  31  93 S15       30.20F FOG     WCI  23
DECATUR        CLOUDY    34  29  82 S10       30.23S HAZE    WCI  26
PEORIA         CLOUDY    37  31  78 S10       30.18S HAZE    WCI  30
LACON*         CLOUDY    35  30  84 S8        30.17S WCI  28
LINCOLN*       CLOUDY    37  33  85 S12       30.21S WCI  29
SPRINGFIELD    CLOUDY    38  31  76 SE13      30.20F WCI  30
TAYLORVILLE    CLOUDY    34  32  93 SE9       30.22S WCI  26
$$

ILZ033-039-045-046-055>057-062-063-211600-
EAST-CENTRAL ILLINOIS

CITY           SKY/WX    TMP DP  RH WIND       PRES   REMARKS
CHAMPAIGN      CLOUDY    32  27  81 S12       30.23F HAZE    WCI  23
DANVILLE*      CLOUDY    30  26  86 SE10      30.23S WCI  21
RANTOUL*       CLOUDY    32  29  87 SE12      30.24S FOG     WCI  23
MATTOON        CLOUDY    31  26  82 S8        30.24S WCI  23
PARIS*         CLOUDY    31  29  92 SE8       30.27S FOG     WCI  23
$$

ILZ079-100>102-211600-
SOUTHWEST ILLINOIS

CITY           SKY/WX    TMP DP  RH WIND       PRES   REMARKS
ALTON          CLOUDY    37  32  81 SE12      30.22R WCI  30
BELLEVILLE     CLOUDY    37  33  86 SE6       30.22R WCI  32
CAHOKIA*       CLOUDY    39  33  79 SE9       30.22R WCI  33
SPARTA*        CLOUDY    34  30  85 SE6       30.25R WCI  29
$$

ILZ064>066-069>071-074>076-080>082-084>086-088>090-092>094-211600-
SOUTH-CENTRAL ILLINOIS

CITY           SKY/WX    TMP DP  RH WIND       PRES   REMARKS
CARBONDALE     MOSUNNY   32  28  85 E3        30.25S
CAIRO*         SUNNY     34  34 100 NE3       30.25S FOG
EFFINGHAM*     CLOUDY    33  26  77 SE6       30.27S HAZE    WCI  27
MARION         PTSUNNY   32  28  86 SE8       30.26S WCI  25
MT. VERNON     CLOUDY    34  25  69 SE3       30.26S
CENTRALIA*     CLOUDY    34  28  78 SE7       30.25R WCI  27
SALEM*         CLOUDY    35  29  77 SE7       30.25R WCI  29
METROPOLIS*    SUNNY     31  30  96 NE3       30.24F
$$

ILZ067-068-072-073-078-083-087-091-211600-
SOUTHEAST ILLINOIS

CITY           SKY/WX    TMP DP  RH WIND       PRES   REMARKS
LAWRENCEVILLE  SUNNY     30  28  92 E7        30.28F FOG     WCI  23
FLORA*         SUNNY     32  28  85 SE6       30.26F FOG     WCI  26
FAIRFIELD*     SUNNY     32  28  87 SE6       30.25F FOG     WCI  26
HARRISBURG*    SUNNY     31  30  96 E5        30.28R FOG     WCI  26
ROBINSON*      SUNNY     30  28  94 SE3       30.30R FOG
CARMI*         SUNNY     32  32 100 E3        30.27S FOG
$$

ABBREVIATIONS USED IN REMARKS
   TC - TEMPERATURE IN CELSIUS
  WCI - WIND CHILL INDEX
   HX - HEAT INDEX
  VSB - VISIBILITY
$$




USA.gov is the U.S. government's official web portal to all federal, state and local government web resources and services.